Location: Unspecified
(0.0000°N, 0.0000°E)
Time: 12:37:23
(UTC+00:00)

Vanguard 2 - Pass Details

Date: 09 December 2017
Orbit: 553 x 2939 km, 32.9° (Epoch: 21 January)

Event Time Altitude Azimuth Distance (km) Brightness Sun altitude
Rises 13:30:56 0° 243° (WSW) 6,005 12.6 56.9°
Reaches altitude 10° 13:35:34 10° 246° (WSW) 4,641 12.2 56.1°
Maximum altitude 13:47:09 55° 320° (NW) 1,680 10.0 53.9°
Drops below altitude 10° 13:54:00 10° 38° (NE) 2,817 10.2 52.6°
Sets 13:56:11 0° 43° (NE) 3,539 10.6 52.2°
